Weather History for Marion, IN

Change the Weather History Date:

Thursday, November 1, 2012

  Actual Average (KMIE) Record (KMIE)
Temperature  
Mean Temperature 40 °F 49 °F  
Max Temperature 49 °F 58 °F 77 °F (1999)
Min Temperature 30 °F 39 °F 25 °F (1962)
Degree Days  
Heating Degree Days 26 16  
Month to date heating degree days 16  
Since 1 July heating degree days 480  
Cooling Degree Days 0 0  
Month to date cooling degree days 0  
Year to date cooling degree days 955  
Moisture  
Dew Point 29 °F    
Average Humidity 66    
Maximum Humidity 84    
Minimum Humidity 36    
Precipitation  
Precipitation 0.00 in 0.11 in 1.10 in (1979)
Month to date precipitation 0.11  
Year to date precipitation 33.90  
Sea Level Pressure  
Sea Level Pressure 29.83 in    
Wind  
Wind Speed 10 mph (WNW)    
Max Wind Speed 20 mph    
Max Gust Speed 24 mph    
Visibility 9 miles    
Events      
T = Trace of Precipitation, MM = Missing Value Source: NWS Daily Summary

Daily Weather History Graph

Daily Weather History Graph

Search for Another Location

Airport:

Trip Planner

Search our weather history database for the weather conditions in past years. The results will help you decide how hot, cold, wet, or windy it might be!

Date:

Astronomy

Nov. 01, 2012 Rise Set
Actual Time 8:13 AM EDT 6:38 PM EDT
Civil Twilight 7:44 AM EDT 7:07 PM EDT
Nautical Twilight 7:12 AM EDT 7:39 PM EDT
Astronomical Twilight 6:40 AM EDT 8:11 PM EDT
Moon 8:34 PM EDT (11/1) 10:45 AM EDT (11/1)
Length of Visible Light 11h 22m
Length of Day
10h 25m
Waning Gibbous, 93% of the Moon is Illuminated
Nov 1
Waning Gibbous
Nov 6
Last Quarter
Nov 13
New
Nov 20
First Quarter
Nov 28
Full

Hourly Weather History & Observations

Time (EDT) Temp. Windchill Dew Point Humidity Pressure Visibility Wind Dir Wind Speed Gust Speed Precip Events Conditions
12:15 AM 39.2 °F 33.6 °F 32.2 °F 76% 29.81 in 10.0 mi West 8.1 mph - N/A   Overcast
12:35 AM 39.2 °F 33.0 °F 32.5 °F 77% 29.81 in 10.0 mi West 9.2 mph - N/A   Overcast
12:55 AM 39.2 °F 33.0 °F 32.2 °F 76% 29.81 in 10.0 mi West 9.2 mph - N/A   Overcast
1:15 AM 39.4 °F 33.8 °F 32.0 °F 75% 29.81 in 10.0 mi WNW 8.1 mph - N/A   Overcast
1:35 AM 39.4 °F 32.7 °F 32.4 °F 76% 29.80 in 10.0 mi West 10.4 mph - N/A   Overcast
1:55 AM 39.2 °F 32.5 °F 32.4 °F 76% 29.80 in 10.0 mi West 10.4 mph - N/A   Overcast
2:15 AM 39.2 °F 32.5 °F 32.7 °F 78% 29.80 in 7.0 mi West 10.4 mph - N/A   Overcast
2:35 AM 39.6 °F 32.5 °F 32.9 °F 77% 29.80 in 10.0 mi West 11.5 mph - N/A   Overcast
2:55 AM 39.9 °F 32.9 °F 32.9 °F 76% 29.80 in 10.0 mi WNW 11.5 mph - N/A   Overcast
3:15 AM 40.1 °F 33.2 °F 32.7 °F 75% 29.80 in 10.0 mi WNW 11.5 mph - N/A   Overcast
3:35 AM 40.1 °F 32.7 °F 32.9 °F 75% 29.80 in 7.0 mi West 12.7 mph - N/A   Overcast
3:55 AM 40.1 °F 33.2 °F 32.5 °F 74% 29.80 in 10.0 mi WNW 11.5 mph - N/A   Overcast
4:15 AM 39.7 °F 32.7 °F 32.2 °F 74% 29.80 in 10.0 mi WNW 11.5 mph - N/A   Overcast
4:35 AM 38.3 °F 30.9 °F 31.5 °F 76% 29.81 in 10.0 mi WNW 11.5 mph - N/A   Scattered Clouds
4:55 AM 37.2 °F 29.6 °F 30.4 °F 76% 29.81 in 10.0 mi WNW 11.5 mph - N/A   Clear
5:15 AM 36.3 °F 28.4 °F 29.5 °F 76% 29.81 in 10.0 mi WNW 11.5 mph - N/A   Clear
5:35 AM 35.1 °F 27.4 °F 29.3 °F 80% 29.81 in 10.0 mi West 10.4 mph - N/A   Clear
5:55 AM 33.8 °F 26.4 °F 28.8 °F 82% 29.81 in 7.0 mi West 9.2 mph - N/A   Clear
6:15 AM 32.9 °F 25.3 °F 28.2 °F 83% 29.82 in 7.0 mi West 9.2 mph - N/A   Clear
6:35 AM 32.2 °F 23.8 °F 27.9 °F 84% 29.82 in 10.0 mi West 10.4 mph - N/A   Clear
6:55 AM 32.0 °F 24.2 °F 27.3 °F 83% 29.82 in 10.0 mi West 9.2 mph - N/A   Clear
7:15 AM 32.0 °F 24.2 °F 27.0 °F 82% 29.82 in 10.0 mi West 9.2 mph - N/A   Clear
7:35 AM 31.8 °F 24.6 °F 26.4 °F 80% 29.82 in 10.0 mi West 8.1 mph - N/A   Clear
7:55 AM 31.5 °F 24.2 °F 25.7 °F 79% 29.82 in 10.0 mi West 8.1 mph - N/A   Clear
8:15 AM 31.1 °F 22.4 °F 25.3 °F 79% 29.83 in 7.0 mi West 10.4 mph - N/A   Clear
8:35 AM 31.1 °F 23.7 °F 24.6 °F 77% 29.83 in 10.0 mi West 8.1 mph - N/A   Clear
8:55 AM 30.9 °F 22.8 °F 24.8 °F 78% 29.84 in 10.0 mi West 9.2 mph - N/A   Clear
9:15 AM 31.6 °F 23.1 °F 25.0 °F 76% 29.84 in 10.0 mi West 10.4 mph - N/A   Scattered Clouds
9:35 AM 32.0 °F 23.6 °F 25.3 °F 76% 29.85 in 7.0 mi West 10.4 mph - N/A   Clear
9:55 AM 32.9 °F 24.1 °F 25.7 °F 75% 29.85 in 10.0 mi West 11.5 mph - N/A   Mostly Cloudy
10:15 AM 34.3 °F 25.0 °F 26.2 °F 72% 29.85 in 10.0 mi West 13.8 mph - N/A   Mostly Cloudy
10:35 AM 35.8 °F 27.8 °F 27.1 °F 71% 29.86 in 7.0 mi WNW 11.5 mph - N/A   Mostly Cloudy
10:55 AM 37.2 °F 28.3 °F 28.0 °F 69% 29.87 in 10.0 mi West 15.0 mph - N/A   Overcast
11:15 AM 37.0 °F 28.9 °F 27.7 °F 69% 29.87 in 10.0 mi West 12.7 mph - N/A   Mostly Cloudy
11:35 AM 38.3 °F 30.1 °F 28.8 °F 69% 29.87 in 10.0 mi WNW 13.8 mph - N/A   Scattered Clouds
11:55 AM 38.8 °F 31.6 °F 28.8 °F 67% 29.87 in 10.0 mi West 11.5 mph - N/A   Scattered Clouds
12:15 PM 40.1 °F 32.4 °F 29.8 °F 67% 29.88 in 10.0 mi WNW 13.8 mph - N/A   Mostly Cloudy
12:35 PM 41.0 °F 35.8 °F 30.2 °F 65% 29.87 in 10.0 mi West 8.1 mph - N/A   Scattered Clouds
12:55 PM 42.4 °F 35.7 °F 30.9 °F 64% 29.87 in 10.0 mi West 12.7 mph 16.1 mph N/A   Mostly Cloudy
1:15 PM 44.4 °F 38.2 °F 30.0 °F 57% 29.86 in 7.0 mi WNW 12.7 mph 17.3 mph N/A   Scattered Clouds
1:35 PM 45.0 °F 38.2 °F 28.9 °F 53% 29.86 in 7.0 mi WNW 15.0 mph - N/A   Mostly Cloudy
1:55 PM 45.9 °F 40.4 °F 27.3 °F 48% 29.85 in 10.0 mi West 11.5 mph - N/A   Overcast
2:15 PM 46.8 °F - 26.2 °F 45% 29.84 in 5.0 mi WNW 13.8 mph - N/A   Haze
2:35 PM 47.5 °F - 23.5 °F 39% 29.84 in 10.0 mi WNW 15.0 mph 23.0 mph N/A   Clear
2:55 PM 48.2 °F - 22.5 °F 36% 29.83 in 10.0 mi WNW 17.3 mph 21.9 mph N/A   Clear
3:15 PM 49.3 °F - 25.3 °F 39% 29.82 in 7.0 mi WNW 19.6 mph 24.2 mph N/A   Scattered Clouds
3:35 PM 49.8 °F - 25.9 °F 39% 29.82 in 10.0 mi WNW 18.4 mph 21.9 mph N/A   Clear
3:55 PM 49.6 °F - 25.5 °F 39% 29.82 in 7.0 mi WNW 17.3 mph - N/A   Scattered Clouds
4:15 PM 48.9 °F - 26.2 °F 41% 29.81 in 5.0 mi WNW 13.8 mph - N/A   Haze
4:35 PM 48.2 °F - 27.0 °F 44% 29.81 in 10.0 mi West 16.1 mph - N/A   Scattered Clouds
4:55 PM 48.6 °F - 28.0 °F 45% 29.81 in 7.0 mi West 15.0 mph - N/A   Scattered Clouds
5:15 PM 49.1 °F - 29.3 °F 46% 29.81 in 10.0 mi West 16.1 mph - N/A   Overcast
5:35 PM 48.9 °F - 29.7 °F 47% 29.81 in 5.0 mi West 11.5 mph - N/A   Haze
5:55 PM 48.2 °F - 30.7 °F 51% 29.81 in 7.0 mi West 11.5 mph - N/A   Mostly Cloudy
6:15 PM 47.8 °F - 31.6 °F 53% 29.82 in 7.0 mi WNW 10.4 mph - N/A   Overcast
6:35 PM 47.7 °F - 31.8 °F 54% 29.82 in 10.0 mi West 8.1 mph - N/A   Overcast
6:55 PM 46.4 °F 41.9 °F 32.4 °F 58% 29.82 in 10.0 mi West 9.2 mph - N/A   Overcast
7:15 PM 45.5 °F 40.8 °F 31.8 °F 59% 29.82 in 5.0 mi West 9.2 mph - N/A   Haze
7:35 PM 45.0 °F 39.7 °F 31.3 °F 59% 29.83 in 10.0 mi West 10.4 mph - N/A   Overcast
7:55 PM 45.0 °F 40.6 °F 31.5 °F 59% 29.84 in 7.0 mi WNW 8.1 mph - N/A   Overcast
8:15 PM 45.5 °F 41.3 °F 30.7 °F 56% 29.84 in 10.0 mi WNW 8.1 mph - N/A   Overcast
8:35 PM 44.8 °F 41.0 °F 30.9 °F 58% 29.84 in 10.0 mi West 6.9 mph - N/A   Overcast
8:55 PM 43.9 °F 39.9 °F 31.5 °F 62% 29.84 in 10.0 mi WNW 6.9 mph - N/A   Overcast
9:15 PM 44.1 °F 40.8 °F 31.6 °F 62% 29.85 in 7.0 mi WNW 5.8 mph - N/A   Overcast
9:35 PM 43.0 °F 39.5 °F 31.8 °F 65% 29.84 in 10.0 mi West 5.8 mph - N/A   Overcast
9:55 PM 41.7 °F 38.8 °F 32.0 °F 68% 29.85 in 10.0 mi WNW 4.6 mph - N/A   Overcast
10:15 PM 42.1 °F 39.2 °F 31.5 °F 66% 29.85 in 7.0 mi North 4.6 mph - N/A   Overcast
10:35 PM 41.0 °F - 31.8 °F 70% 29.84 in 4.0 mi Calm Calm - N/A   Haze
11:15 PM 39.0 °F 35.7 °F 32.0 °F 76% 29.85 in 5.0 mi WSW 4.6 mph - N/A   Haze
11:35 PM 38.1 °F 35.7 °F 32.2 °F 79% 29.84 in 10.0 mi SW 3.5 mph - N/A   Overcast
11:55 PM 38.8 °F - 32.2 °F 77% 29.84 in 10.0 mi Calm Calm - N/A   Overcast